Location: *
(45.9500°N, 9.0833°E)
Time: 19:03:17
(UTC+00:00)

Vanguard 2 Rocket - Pass Details

Date: 14 June 2021
Orbit: 555 x 3325 km, 32.9° (Epoch: 30 July)

Event Time Altitude Azimuth Distance (km) Brightness Sun altitude
Rises 18:09:49 0° 208° (SSW) 7,302 11.6 9.1°
Reaches altitude 10° 18:16:13 10° 198° (SSW) 6,205 11.1 8.1°
Maximum altitude 18:30:02 26° 152° (SSE) 4,413 10.0 5.9°
Drops below altitude 10° 18:40:40 10° 104° (ESE) 4,734 10.0 4.3°
Sets 18:44:37 0° 92° (E) 5,334 10.3 3.7°
